Tracking 18980 objects as of 22-Feb-2018
HD Live streaming from Space Station
objects crossing your sky now

FENGYUN 1C DEB

Track FENGYUN 1C DEB now!
10-day predictions


NORAD ID: 30552
Int'l Code: 1999-025AKS
Perigee: 816.6 km
Apogee: 846.2 km
Inclination: 98.9 °
Period: 101.4 minutes
Semi major axis: 7202 km
RCS: 0.0144 m2 (small)
Launch date: May 10, 1999
Source: People's Republic of China (PRC)
Launch site: Taiyaun Space Center, China (TSC)

Note: This is SATELLITE DEBRIS
aabbcc
Your satellite tracking list
Your tracking list is empty




NASA's NSSDC Master Catalog

Two Line Element Set (TLE):
1 30552U 99025AKS 18053.09435257  .00000846  00000-0  41581-3 0  9992
2 30552  98.9052 111.6018 0020517 249.1473 140.6797 14.20321301569790
Source of the keplerian elements: AFSPC